Regional Weather Roundup
Issued by NWS

Home | Current Version | Previous Version | Text Only | Print | Product List | Glossary Off
Versions: 1 2 3 4 5 6 7 8 9 10 11 12 13 14 15 16 17 18 19 20 21 22 23 24 25 26 27 28 29 30 31 32 33 34 35 36 37 38 39 40 41 42 43 44 45 46 47 48 49 50

000
ASUS43 KMPX 180610
RWRMN
WEATHER ROUNDUP FOR MINNESOTA
NATIONAL WEATHER SERVICE TWIN CITIES/CHANHASSEN MN
1200 AM CST THU DEC 18 2014


NOTE: "FAIR" INDICATES FEW OR NO CLOUDS BELOW 12,000 FEET WITH NO
SIGNIFICANT WEATHER AND/OR OBSTRUCTIONS TO VISIBILITY. N/A MEANS
CURRENT SKY AND/OR WEATHER CONDITIONS ARE NOT AVAILABLE.

MNZ060>063-068>070-180700-
   Twin Cities Metro

CITY           SKY/WX    TMP DP  RH WIND       PRES   REMARKS
TWIN CITIES    PTCLDY    14  10  84 NE3       30.33S
6HR MIN TEMP:  14; 6HR MAX TEMP:  18;

ST PAUL        PTCLDY    13  10  88 CALM      30.35S
CRYSTAL        PTCLDY    11   7  84 CALM      30.32S
BLAINE         PTCLDY    10  10 100 CALM      30.32S
LAKEVILLE      PTCLDY     9   9 100 SW3       30.33R
EDEN PRAIRIE   CLEAR     14   9  80 CALM      30.32R
6HR MIN TEMP:  13; 6HR MAX TEMP:  18;

SOUTH ST PAUL  PTCLDY    13  11  90 CALM      30.33R
LAKE ELMO      FAIR      10   9  92 CALM      30.33S
$$
MNZ001>005-007-008-013>017-022>024-027-028-180700-
   Northwest Minnesota

CITY           SKY/WX    TMP DP  RH WIND       PRES   REMARKS
BEMIDJI        PTCLDY     3   0  87 CALM      30.28F
HALLOCK        PTCLDY     5   1  85 CALM      30.31F
ROSEAU         MOCLDY     9   3  78 CALM      30.31S
WARROAD        PTCLDY     3   0  85 CALM      30.32S
THIEF RVR FALL PTCLDY    10   7  85 CALM      30.30S
CROOKSTON      PTCLDY     9   7  92 CALM      30.33S
FOSSTON        PTCLDY     5   1  85 CALM      30.29S
DETROIT LAKES  PTCLDY    10   9  92 CALM      30.28R
MOORHEAD       PTCLDY     9   9 100 CALM      30.32S
PARK RAPIDS    PTCLDY     4   0  83 CALM      30.27S
MAHNOMEN       FAIR       9   6  87 SE5       30.28S WCI   0
$$
MNZ006-009>011-018-025>026-180700-
   North Central Minnesota

CITY           SKY/WX    TMP DP  RH WIND       PRES   REMARKS
BAUDETTE       MOCLDY     4  -1  80 CALM      30.31S
FLAG ISLAND    PTCLDY    10   5  79 CALM      30.31F
INTL FALLS     PTCLDY     1  -3  83 CALM      30.32S
6HR MIN TEMP:   1; 6HR MAX TEMP:  13;

WASKISH        MOCLDY     1   0  92 CALM      30.31S
BIG FORK       PTCLDY     1  -2  85 CALM      30.30S
LONGVILLE      CLEAR      1   0  92 CALM      30.30S
GRAND RAPIDS   PTCLDY     3   1  92 CALM      30.28S
CRANE LAKE     PTCLDY    -6  -8  92 CALM      30.35S
ORR            MOCLDY     1  -2  85 CALM      30.29S
COOK           MOCLDY    -2  -6  84 CALM      30.31S
WALKER         FAIR       3   0  87 CALM      30.29S
$$
MNZ012-019>021-037-180700-
   Northeast Minnesota

CITY           SKY/WX    TMP DP  RH WIND       PRES   REMARKS
DULUTH         FLURRIES  17  12  80 W5        30.28R WCI  10
6HR MIN TEMP:  15; 6HR MAX TEMP:  19; 6HR PCP: TRACE;

ELY            PTCLDY     0  -4  85 CALM      30.30R
HIBBING        PTCLDY     2  -3  80 CALM      30.29S
EVELETH        MOCLDY     3   0  85 CALM      30.31R
DULUTH HARBOR  CLOUDY    25  21  86 CALM      30.34R
TWO HARBORS    CLOUDY    19  12  73 VRB6      30.28S WCI  11
SILVER BAY     CLOUDY    16  10  79 CALM      30.29R
GRAND MARAIS     N/A     15   6  67 N3        30.34R
G MARAIS ARPRT MOCLDY     1  -4  78 N6        30.25S WCI -10
$$
MNZ029>031-032-039>041-046>048-054>057-064-180700-
   West Central Minnesota

CITY           SKY/WX    TMP DP  RH WIND       PRES   REMARKS
FERGUS FALLS   PTCLDY     9   7  92 CALM      30.34R
WHEATON        PTCLDY     3   0  85 CALM      30.33R
MORRIS         FAIR       7   5  92 E5        30.29S WCI  -2
ALEXANDRIA     PTCLDY     9   6  88 CALM      30.29R
ELBOW LAKE     FAIR       7   4  89 E3        30.29S
WADENA         PTCLDY     3   0  85 CALM      30.27S
GLENWOOD       PTCLDY     9   7  92 CALM      30.29R
APPLETON       CLEAR      5   1  85 CALM      30.32R
BENSON         PTCLDY     5   1  85 CALM      30.31R
ORTONVILLE     PTCLDY     7   3  85 CALM      30.31R
MADISON        PTCLDY     9   5  85 CALM      30.32S
WILLMAR        FAIR      10   9  92 CALM      30.32R
$$
MNZ033>034-036-042>043-049>051-058-059-180700-
   Central Minnesota

CITY           SKY/WX    TMP DP  RH WIND       PRES   REMARKS
ST CLOUD       PTCLDY    11   6  81 NE5       30.31R WCI   3
6HR MIN TEMP:  11; 6HR MAX TEMP:  15;

SAUK CENTRE    FAIR       6   4  89 CALM      30.30R
PAYNESVILLE    PTCLDY     6   5  96 CALM      30.31R
AITKIN         CLEAR      5   0  78 CALM      30.30S
PINE RIVER     PTCLDY     1   0  92 CALM      30.32F
BRAINERD       PTCLDY     2  -2  83 CALM      30.30F
STAPLES        MOCLDY     5   3  92 CALM      30.29S
LONG PRAIRIE   FAIR       7   5  92 CALM      30.29R
LITTLE FALLS   MOCLDY     9   5  85 CALM      30.31R
LITCHFIELD     PTCLDY    10  10 100 CALM      30.32R
BUFFALO        CLEAR     11   8  88 CALM      30.33R
MAPLE LAKE     CLEAR     11  10  94 CALM      30.32S
$$
MNZ037-044-045-052-053-180700-
   East Central Minnesota

CITY           SKY/WX    TMP DP  RH WIND       PRES   REMARKS
PRINCETON      PTCLDY     9   7  92 CALM      30.31S
MORA           PTCLDY     7   5  92 CALM      30.34S
CAMBRIDGE      PTCLDY     9   1  72 CALM      30.31S
RUSH CITY      CLOUDY    15  12  90 CALM      30.33F
MOOSE LAKE     CLOUDY     7   3  85 CALM      30.31S
HINCKLEY       FLURRIES  18  14  86 CALM      30.33S
CLOQUET        FLURRIES  14  10  85 W3        30.30R
MCGREGOR       MOCLDY     9   5  85 CALM      30.32R
$$
MNZ071>073-080-081-089-090-097-098-180700-
   Southwest Minnesota

CITY           SKY/WX    TMP DP  RH WIND       PRES   REMARKS
MONTEVIDEO     PTCLDY     7   5  92 CALM      30.33R
GRANITE FALLS  PTCLDY     6   3  88 CALM      30.34R
CANBY          PTCLDY     3   0  88 CALM      30.31S
MARSHALL       PTCLDY     3  -2  78 CALM      30.29F
REDWOOD FALLS  PTCLDY     9   5  84 SW3       30.32R
OLIVIA         PTCLDY    12  10  92 CALM      30.31R
PIPESTONE      FAIR      10   7  85 CALM      30.24S
WINDOM         PTCLDY     7   5  92 CALM      30.28S
WORTHINGTON    PTCLDY     9   7  92 CALM      30.26S
JACKSON        PTCLDY    10   7  85 CALM      30.27F
TRACY          PTCLDY     8   6  90 CALM      30.28F
SLAYTON        PTCLDY     6   4  93 CALM      30.26F
$$
MNZ065>067-074>077-082>085-091>093-180700-
   South Central Minnesota

CITY           SKY/WX    TMP DP  RH WIND       PRES   REMARKS
MANKATO        CLOUDY    16   9  73 SE5       30.32S WCI   9
NEW ULM        FLURRIES  16  12  86 CALM      30.32R
ST JAMES       CLOUDY    12  10  92 CALM      30.32F
FAIRMONT       PTCLDY    10   5  79 CALM      30.29S
GLENCOE        CLOUDY    13  11  92 CALM      30.32R
FARIBAULT      PTCLDY    12  10  92 CALM      30.32S
OWATONNA       MOCLDY    12   9  85 CALM      30.31S
WASECA         PTCLDY    14  10  85 SE3       30.33S
ALBERT LEA     CLOUDY    18  16  93 E3        30.29F
$$
MNZ078>079-086>088-094>096-180700-
   Southeast Minnesota

CITY           SKY/WX    TMP DP  RH WIND       PRES   REMARKS
ROCHESTER      CLOUDY    16  10  77 E3        30.30R
6HR MIN TEMP:  15; 6HR MAX TEMP:  18; 6HR PCP: TRACE;

RED WING       MOCLDY    12   9  85 CALM      30.32S
STANTON        PTCLDY    11   8  87 S3        30.32R
DODGE CENTER   MOCLDY    12  10  92 CALM      30.29S
WINONA         CLEAR     18  14  86 W3        30.35R
AUSTIN         CLOUDY    16  12  86 CALM      30.30S
PRESTON        CLOUDY    16  11  82 CALM      30.30S
$$
ABBREVIATIONS USED IN REMARKS
   TC - TEMPERATURES IN CELSIUS
  WCI - WIND CHILL INDEX
   HX - HEAT INDEX
  VSB - VISIBILITY
$$



USA.gov is the U.S. government's official web portal to all federal, state and local government web resources and services.